x

Cape Elizabeth- 45nm Nw Of Aberdeen, Wa (46041) Wave Buoy

6:50 - Sat 30th Apr 2016 All times are PDT. -7 hours from GMT.

  • Sig Wave height 5.6ft
  • Swell Direction
  • Peak Period 10s
  • Average Period 6s
  • Wind
    20mph, 22mph gusts
  • Sea Temp 55°f
  • Luft Temp 53°f
  • Sea Pressure 1027.1mb
  • Cape Elizabeth- 45nm Nw Of Aberdeen, Wa
  • Cape Elizabeth- 45nm Nw Of Aberdeen, Wa

More Historic Weather Station data

Upgrade to MSW Pro to gain access to the past 30 days of data for over 8000 Wavebouys and Weather Stations around the globe.

Join Pro

Comparision Forecast

View Surf forecast
   
Sa 04/30 6:50 5.5ft 10s 6s 20 22 mph 1027.1mb 55f 53f
5:50 6ft 10s 6s 18 20 mph 1027.6mb 55f 53f
4:50 6ft 10s 7s 18 20 mph 1027.8mb 55f 53f
3:50 6ft 10s 7s 13 16 mph 1028.3mb 55f 53f
2:50 6ft 10s 7s 13 16 mph 1028.7mb 55f 52f
1:50 6.5ft 11s 7s 13 18 mph 1029.1mb 55f 52f
12:50 6ft 11s 7s 11 16 mph 1029.4mb 55f 52f
11:50 6.5ft 11s 7s 11
mph
1029.3mb 55f 52f
10:50 6.5ft 11s 7s 9 13 mph 1029.1mb 55f 52f
9:50 7ft 11s 7s 9 13 mph 1029mb 55f 52f
8:50 8ft 10s 7s 7 9 mph 1028.5mb 55f 52f
7:50 8ft 11s 7s 11 13 mph 1028.1mb 55f 52f
5:50 9ft 8s 7s 11 16 mph 1026.9mb 55f 52f
4:50 8ft 8s 7s 13 18 mph 1026.6mb 55f 52f
3:50 9ft 8s 7s 13 18 mph 1026.5mb 55f 52f
2:50 9ft 8s 7s 16 22 mph 1026.2mb 55f 52f
1:50 8.5ft 8s 7s 18 22 mph 1025.8mb 55f 52f
12:50 9.5ft 8s 7s 18 22 mph 1025.6mb 55f 52f
Fr 04/29 11:50 9ft 9s 7s 20 22 mph 1025.3mb 55f 52f
10:50 8.5ft 7s 6s 22 25 mph 1025.2mb 55f 52f
9:50 8.5ft 8s 6s 20 25 mph 1024.8mb 55f 52f
8:50 8ft 8s 6s 20 27 mph 1024.1mb 55f 52f
6:50 8ft 8s 6s 20 27 mph 1023.3mb 55f 53f
5:50 7.5ft 12s 6s 20 25 mph 1023.1mb 55f 52f
4:50 8ft 12s 7s 20 25 mph 1022.8mb 56f 53f
3:50 6ft 11s 7s 20 22 mph 1022.5mb 56f 53f
2:50 6.5ft 12s 8s 13 16 mph 1022.2mb 56f 53f
1:50 6ft 12s 8s 9 11 mph 1021.8mb 56f 52f
12:50 5ft 10s 8s 13 16 mph 1021.5mb 56f 51f
11:50 5.5ft 10s 8s 9 11 mph 1021.2mb 56f 51f
10:50 5ft 11s 9s 11 16 mph 1021mb 56f 51f
9:50 6ft 13s 9s 9 11 mph 1020.6mb 55f 51f
8:50 6ft 13s 9s 9 13 mph 1020.2mb 55f 52f
7:50 6ft 12s 9s 9 11 mph 1019.5mb 55f 52f
6:50 6ft 12s 9s 9 13 mph 1019.4mb 56f 52f
5:50 6ft 13s 9s 9 11 mph 1019.3mb 56f 52f
4:50 6ft 13s 8s 9 11 mph 1019.4mb 56f 51f
3:50 6ft 13s 8s 7 9 mph 1019.7mb 56f 51f
2:50 6ft 11s 8s 9 11 mph 1019.8mb 56f 52f
1:50 7ft 10s 9s 9 11 mph 1020.1mb 56f 52f
12:50 7ft 13s 9s 11 13 mph 1020.4mb 56f 52f
Do 04/28 11:50 7ft 10s 9s 11 13 mph 1020.5mb 56f 52f
10:50 7.5ft 11s 9s 9 11 mph 1020.6mb 56f 52f
9:50 7.5ft 11s 9s 9 13 mph 1020.7mb 56f 52f
8:50 8ft 12s 9s 9 11 mph 1020.6mb 56f 52f
7:50 7.5ft 14s 9s 9 11 mph 1020.2mb 56f 52f
6:50 7.5ft 14s 9s 9 11 mph 1020.5mb 56f 52f
5:50 8ft 13s 9s 9 13 mph 1020.8mb 56f 52f
4:50 9ft 14s 10s 13 16 mph 1021mb 56f 51f
3:50 8ft 14s 8s 16 18 mph 1021mb 56f 51f
2:50 8.5ft 14s 9s 16 20 mph 1021.3mb 56f 51f
1:50 8.5ft 14s 9s 13 18 mph 1021.4mb 56f 52f
12:50 8.5ft 14s 9s 11 16 mph 1020.9mb 56f 52f
11:50 8.5ft 13s 9s 9 13 mph 1020.4mb 56f 52f
10:50 8ft 14s 9s 7 11 mph 1020.5mb 56f 53f
9:50 8ft 14s 9s 9 11 mph 1020.4mb 55f 53f
8:50 9ft 15s 10s 9 11 mph 1020.3mb 55f 52f
7:50 9ft 14s 10s 11 16 mph 1020.2mb 55f 52f
6:50 9ft 15s 10s 9 11 mph 1019.9mb 55f 52f
5:50 9ft 16s 10s 9 11 mph 1019.4mb 55f 52f
4:50 9ft 16s 9s 11
mph
1019.4mb 55f 52f
3:50 9ft 14s 9s 9 11 mph 1019.1mb 55f 52f
2:50 9ft 15s 9s 11 13 mph 1019mb 55f 52f
1:50 11ft 15s 10s 11 13 mph 1018.8mb 56f 52f
12:50 10ft 16s 10s 13 16 mph 1018.8mb 56f 52f
Mi 04/27 11:50 10ft 15s 9s 13 16 mph 1018.5mb 56f 52f
10:50 9.5ft 14s 9s 13 18 mph 1018.4mb 55f 52f
9:50 8ft 14s 9s 13 16 mph 1018.4mb 55f 52f
8:50 8ft 14s 9s 13 16 mph 1018mb 55f 52f
7:50 7.5ft 14s 9s 11 13 mph 1017.7mb 56f 52f
6:50 7ft 12s 8s 9 11 mph 1017.5mb 55f 53f
5:50 7ft 12s 8s 11 13 mph 1017.6mb 55f 52f
4:50 7.5ft 10s 8s 11 13 mph 1017.7mb 56f 52f
3:50 7ft 10s 8s 9 11 mph 1017.7mb 56f 52f
2:50 7ft 10s 8s 9 11 mph 1017.6mb 56f 51f
1:50 7ft 10s 8s 7 11 mph 1017.5mb 56f 52f
12:50 7ft 10s 8s 4 7 mph 1017.6mb 57f 51f
11:50 6ft 10s 7s 2 4 mph 1017.1mb 55f 52f
10:50 6ft 11s 8s 2
mph
1016.9mb 55f 52f
9:50 5.5ft 11s 7s 4 7 mph 1016.4mb 55f 51f
8:50 6ft 11s 7s 4 7 mph 1016.3mb 55f 50f
7:50 6ft 11s 7s 7 9 mph 1016.1mb 55f 50f
6:50 6ft 11s 8s 9 11 mph 1015.6mb 54f 49f
5:50 6.5ft 11s 8s 9 11 mph 1015.4mb 54f 49f
4:50 6ft 11s 7s 9 11 mph 1015.5mb 54f 49f
3:50 6ft 11s 8s 7 9 mph 1015.7mb 54f 49f